Location: Brantley
(31.5822°N, 86.2569°W)
Time: 07:54:52
(UTC+00:00)

Transit 2A Rocket - Pass Details

Date: 22 February 2026
Orbit: 583 x 900 km, 66.7° (Epoch: 8 March)

Event Time Altitude Azimuth Distance (km) Brightness Sun altitude
Rises 04:28:06 0° 357° (N) 3,309 - -60.1°
Reaches altitude 10° 04:33:25 10° 40° (NE) 2,266 - -60.9°
Maximum altitude 04:34:00 10° 47° (NE) 2,243 - -61.0°
Drops below altitude 10° 04:34:34 10° 53° (NE) 2,241 - -61.1°
Sets 04:39:30 0° 97° (E) 3,048 - -61.9°
